CAPELLA-9-WHITNEY (55910 NORAD) Tracking and Keplerian Element Data

This shows tracking and keplerian element data for the satellite.

Feedback or suggestion? Click here.




ElementValue
Catalog55910
NameCAPELLA-9-WHITNEY
Epoch Orbit762
Epoch Day127.04662279
Epoch Year2023
RAAN45.0971
Inclination44.004
Eccentricity0.0004526
Argument of Perigee185.3536
Mean Anonmoly174.7271
Mean Motion14.91752091
Decay Rate0.00017089
L11 55910U 23035C 23127.04662279 .00017089 00000+0 16871-2 0 9993
L22 55910 44.0040 45.0971 0004526 185.3536 174.7271 14.91752091 7621



Live tracking and technical data element details for CAPELLA-9-WHITNEY (NORAD 55910). CAPELLA-9-WHITNEY can be tracked NOW for your location showing map with azimuth and elevation plus other details from your city location.







IsCatalogInMostPopularTable: catalog: 55910, numindb: 6
Update: records affected: 1



GetName: 55910 CAPELLA-9-WHITNEY

Hit Count: updated at: Tue, 06 Jun 2023 02:38:21 GMT